Weather History for KAKQ - December, 2012

Change the Weather History Date:

Saturday, December 1, 2012

  Actual Average (KJGG) Record (KJGG)
Temperature  
Mean Temperature 47 °F -  
Max Temperature 64 °F 55 °F 78 °F (2006)
Min Temperature 30 °F 34 °F 16 °F (1958)
Degree Days  
Heating Degree Days 18    
Moisture  
Dew Point 34 °F    
Average Humidity 83    
Maximum Humidity 93    
Minimum Humidity 48    
Precipitation  
Precipitation 0.00 in - - ()
Sea Level Pressure  
Sea Level Pressure 30.37 in    
Wind  
Wind Speed 0 mph (SSW)    
Max Wind Speed 5 mph    
Max Gust Speed -    
Visibility 4 miles    
Events      
Averages and records for this station are not official NWS values.
T = Trace of Precipitation, MM = Missing Value Source: NWS Daily Summary

Daily Weather History Graph

Daily Weather History Graph

Search for Another Location

Airport or City:

Trip Planner

Search our weather history database for the weather conditions in past years. The results will help you decide how hot, cold, wet, or windy it might be!

Date:

Astronomy

Dec. 01, 2012 Rise Set
Actual Time 7:03 AM EST 4:51 PM EST
Civil Twilight 6:34 AM EST 5:19 PM EST
Nautical Twilight 6:02 AM EST 5:52 PM EST
Astronomical Twilight 5:30 AM EST 6:23 PM EST
Moon 7:38 PM EST (12/1) 9:15 AM EST (12/1)
Length of Visible Light 10h 45m
Length of Day
9h 48m
Waning Gibbous, 92% of the Moon is Illuminated
Dec 1
Waning Gibbous
Dec 6
Last Quarter
Dec 13
New
Dec 20
First Quarter
Dec 28
Full

Hourly Weather History & Observations

Time (EST) Temp. Dew Point Humidity Pressure Visibility Wind Dir Wind Speed Gust Speed Precip Events Conditions
12:54 AM 35.1 °F 32.0 °F 89% 30.35 in 4.0 mi Calm Calm - N/A   Clear
1:17 AM 33.8 °F 30.2 °F 87% 30.34 in 2.5 mi Calm Calm - N/A   Clear
1:24 AM 33.8 °F 30.2 °F 87% 30.34 in 3.0 mi Calm Calm - N/A   Clear
1:40 AM 33.8 °F 30.2 °F 87% 30.34 in 2.5 mi Calm Calm - N/A   Clear
1:54 AM 33.1 °F 30.0 °F 89% 30.35 in 2.5 mi Calm Calm - N/A   Clear
2:15 AM 33.8 °F 30.2 °F 87% 30.34 in 4.0 mi Calm Calm - N/A   Clear
2:54 AM 32.0 °F 30.0 °F 92% 30.36 in 2.5 mi Calm Calm - N/A   Clear
3:54 AM 30.9 °F 28.9 °F 92% 30.35 in 2.5 mi Calm Calm - N/A   Clear
4:25 AM 32.0 °F 28.4 °F 87% 30.34 in 3.0 mi Calm Calm - N/A   Clear
4:33 AM 30.2 °F 28.4 °F 93% 30.34 in 2.5 mi Calm Calm - N/A   Clear
4:54 AM 32.0 °F 28.9 °F 88% 30.35 in 3.0 mi Calm Calm - N/A   Clear
5:40 AM 30.2 °F 28.4 °F 93% 30.35 in 2.0 mi Calm Calm - N/A   Clear
5:54 AM 30.9 °F 28.9 °F 92% 30.36 in 2.5 mi Calm Calm - N/A   Clear
6:19 AM 30.2 °F 28.4 °F 93% 30.36 in 1.8 mi Calm Calm - N/A   Clear
6:28 AM 30.2 °F 28.4 °F 93% 30.36 in 2.0 mi Calm Calm - N/A   Clear
6:40 AM 30.2 °F 28.4 °F 93% 30.37 in 3.0 mi Calm Calm - N/A   Clear
6:54 AM 30.0 °F 28.0 °F 92% 30.39 in 1.8 mi Calm Calm - N/A   Clear
7:29 AM 32.0 °F 30.2 °F 93% 30.38 in 2.5 mi Calm Calm - N/A   Clear
7:54 AM 35.1 °F 33.1 °F 92% 30.40 in 2.0 mi Calm Calm - N/A   Clear
8:12 AM 37.4 °F 33.8 °F 87% 30.39 in 3.0 mi Calm Calm - N/A   Clear
8:54 AM 43.0 °F 37.9 °F 82% 30.42 in 4.0 mi Calm Calm - N/A   Haze
9:54 AM 50.0 °F 39.0 °F 66% 30.43 in 4.0 mi Calm Calm - N/A   Haze
10:54 AM 54.0 °F 39.9 °F 59% 30.42 in 6.0 mi Calm Calm - N/A   Haze
11:54 AM 57.9 °F 39.9 °F 51% 30.38 in 7.0 mi SSW 3.5 mph - N/A   Clear
12:54 PM 61.0 °F 43.0 °F 52% 30.36 in 7.0 mi Calm Calm - N/A   Clear
1:54 PM 64.0 °F 44.1 °F 48% 30.35 in 8.0 mi Variable 4.6 mph - N/A   Clear
2:54 PM 63.0 °F 45.0 °F 52% 30.35 in 9.0 mi Calm Calm - N/A   Clear
3:54 PM 62.1 °F 44.1 °F 52% 30.35 in 8.0 mi Calm Calm - N/A   Clear
4:54 PM 52.0 °F 46.0 °F 80% 30.35 in 7.0 mi Calm Calm - N/A   Clear
5:54 PM 46.0 °F 43.0 °F 89% 30.37 in 6.0 mi Calm Calm - N/A   Clear
6:54 PM 44.1 °F 39.9 °F 85% 30.39 in 7.0 mi Calm Calm - N/A   Clear
7:54 PM 41.0 °F 37.0 °F 86% 30.39 in 6.0 mi Calm Calm - N/A   Clear
8:54 PM 39.0 °F 37.0 °F 93% 30.40 in 6.0 mi Calm Calm - N/A   Clear
9:54 PM 39.0 °F 36.0 °F 89% 30.41 in 5.0 mi Calm Calm - N/A   Clear
10:54 PM 37.9 °F 35.1 °F 89% 30.41 in 4.0 mi Calm Calm - N/A   Clear
11:54 PM 36.0 °F 34.0 °F 93% 30.40 in 3.0 mi Calm Calm - N/A   Clear